Regional Weather Roundup
Issued by NWS Memphis, TN

Home | Current Version | Previous Version | Text Only | Print | Product List | Glossary On
Versions: 1 2 3 4 5 6 7 8 9 10 11 12 13 14 15 16 17 18 19 20 21 22 23 24 25 26 27 28 29 30 31 32 33 34 35 36 37 38 39 40 41 42 43 44 45 46 47 48 49 50
000
ASUS44 KMEG 250410
RWRMEG
MEMPHIS CWA HOURLY WEATHER ROUNDUP
NATIONAL WEATHER SERVICE MEMPHIS TN
1000 PM CST WED DEC 24 2014

...WEST TENNESSEE...

CITY           SKY/WX    TMP DP  RH WIND       PRES   REMARKS
MEMPHIS INTL   CLOUDY    43  36  76 W8        29.99R
NWS MEMPHIS      N/A     42 N/A N/A MISG        N/A
JACKSON        CLOUDY    41  35  79 W12       29.96R
LEXINGTON      CLOUDY    39  36  87 SW8       29.93R WCI  34
SAVANNAH       CLOUDY    39  36  87 SW6       29.96R WCI  35
DYERSBURG      PTCLDY    39  27  60 W9G16     29.97R WCI  33
UNION CITY     MOCLDY    37  36  93 W8        29.91R WCI  31
PARIS          CLOUDY    37  34  87 W9        29.91R WCI  31
HUNTINGDON     MOCLDY    38  35  89 W8        29.93R WCI  32


...EASTERN ARKANSAS...

CITY           SKY/WX    TMP DP  RH WIND       PRES   REMARKS
JONESBORO      CLOUDY    41  35  79 W9        29.97R
WEST MEMPHIS   CLOUDY    42  38  85 W5        29.99R
BATESVILLE     CLOUDY    41  30  65 W6        29.98R
NEWPORT        CLOUDY    43  34  70 W6        30.00R
WALNUT RIDGE   CLOUDY    41  32  70 W7        29.97R
BLYTHEVILLE    CLEAR     40  35  83 W8        29.97R WCI  34
SEARCY         CLOUDY    42  34  73 SW7       30.02R
STUTTGART      CLOUDY    43  34  70 W13       30.03R
PINE BLUFF     CLOUDY    42  31  64 W5        30.05R
MONTICELLO     CLOUDY    42  36  79 W7        30.05S


...NORTH MISSISSIPPI...

CITY           SKY/WX    TMP DP  RH WIND       PRES   REMARKS
TUPELO         MOCLDY    42  35  76 W6        30.00R
OXFORD         PTCLDY    39  34  81 W3        30.02R
OLIVE BRANCH   CLOUDY    39  39 100 SW6       29.99R WCI  35
TUNICA         CLOUDY    43  37  81 W10       30.01S
CLARKSDALE     CLOUDY    43  37  81 W10       30.04R
CORINTH        CLOUDY    41  37  87 W8        29.97R
GRENADA        CLEAR     37  36  93 CALM      30.03R
GREENWOOD      MOCLDY    42  36  79 VRB5      30.05R
COLUMBUS       CLOUDY    43  36  77 W7        30.02R
STARKVILLE     CLOUDY    41  37  87 CALM      30.03R
GOLDEN TRIANGL CLOUDY    43  36  75 W3        30.02R


...SOUTHEAST MISSOURI...

CITY           SKY/WX    TMP DP  RH WIND       PRES   REMARKS
WEST PLAINS    CLOUDY    37  30  75 W8        29.93R WCI  31
POPLAR BLUFF   CLOUDY    40  32  73 W13G21    29.92R WCI  32
CAPE GIRARDEAU CLOUDY    40  36  86 SW8       29.90R WCI  34


...NORTHWEST ALABAMA...

CITY           SKY/WX    TMP DP  RH WIND       PRES   REMARKS
MUSCLE SHOALS  CLOUDY    44  35  70 W12       29.97R


...MIDDLE TENNESSEE...

CITY           SKY/WX    TMP DP  RH WIND       PRES   REMARKS
NASHVILLE      CLOUDY    42  36  79 W7        29.91R
CLARKSVILLE    CLOUDY    41  36  82 SW9       29.89R
COLUMBIA       CLOUDY    41  41 100 SW6       29.91R


...WESTERN KENTUCKY...

CITY           SKY/WX    TMP DP  RH WIND       PRES   REMARKS
PADUCAH        CLOUDY    40  36  86 W12       29.89R WCI  33
FORT CAMPBELL  CLOUDY    40  36  85 SW12      29.88R WCI  33


...CENTRAL ARKANSAS...

CITY           SKY/WX    TMP DP  RH WIND       PRES   REMARKS
LITTLE ROCK    CLOUDY    43  30  60 W12       30.03R


SKY/WX REPORTED AS FAIR MEANS FEW OR NO CLOUDS BELOW
12 THOUSAND FEET.




USA.gov is the U.S. government's official web portal to all federal, state and local government web resources and services.